Canberra, Australia

5:37 PM AEDT on March 23, 2017 (GMT +1100)
Canberra

Weather History for 94926 - October, 2013

Change the Weather History Date:

Tuesday, October 1, 2013

  Actual Average Record
Temperature  
Mean Temperature 59 °F -  
Max Temperature 71 °F 67 °F - ()
Min Temperature 44 °F 43 °F - ()
Degree Days  
Heating Degree Days 6    
Growing Degree Days 9 (Base 50)    
Moisture  
Dew Point 40 °F    
Average Humidity 52    
Maximum Humidity 88    
Minimum Humidity 17    
Precipitation  
Precipitation 0.02 in 0.09 in - ()
Sea Level Pressure  
Sea Level Pressure 29.73 in    
Wind  
Wind Speed 14 mph ()    
Max Wind Speed 29 mph    
Max Gust Speed 46 mph    
Visibility 6.2 miles    
Events Rain    
T = Trace of Precipitation, MM = Missing Value Source: Averaged Metar Reports

Daily Weather History Graph

Daily Weather History Graph

Search for Another Location

Airport or City:

Trip Planner

Search our weather history database for the weather conditions in past years. The results will help you decide how hot, cold, wet, or windy it might be!

Date:

Astronomy

Oct. 01, 2013 Rise Set
Actual Time 5:40 AM AEST 6:06 PM AEST
Civil Twilight 5:14 AM AEST 6:31 PM AEST
Nautical Twilight 4:44 AM AEST 7:01 PM AEST
Astronomical Twilight 4:14 AM AEST 7:32 PM AEST
Moon 3:07 AM AEST (10/1) 2:28 PM AEST (10/1)
Length of Visible Light 13h 17m
Length of Day
12h 26m
Waning Crescent, 16% of the Moon is Illuminated
Oct 1
Waning Crescent
Oct 5
New
Oct 12
First Quarter
Oct 19
Full
Oct 27
Last Quarter

Hourly Weather History & Observations

Time (AEST) Temp. Windchill Dew Point Humidity Pressure Visibility Wind Dir Wind Speed Gust Speed Precip Events Conditions
12:00 AM 52 °F - 38 °F 48% 29.82 in - SE 3.5 mph - -  
12:00 AM 51.8 °F - 39.2 °F 62% 29.80 in 6.2 mi SE 3.5 mph - N/A   Unknown
12:30 AM 50.0 °F - 41.0 °F 71% 29.80 in 6.2 mi East 5.8 mph - N/A   Unknown
1:00 AM 48 °F - 38 °F 60% 29.78 in - ESE 2.3 mph - -  
1:00 AM 48.2 °F - 39.2 °F 71% 29.77 in 6.2 mi ESE 2.3 mph - N/A   Unknown
1:30 AM 50.0 °F - 39.2 °F 66% 29.74 in 6.2 mi East 2.3 mph - N/A   Unknown
2:00 AM 57.2 °F - 39.2 °F 51% 29.71 in 6.2 mi NNW 8.1 mph - N/A   Unknown
2:30 AM 57.2 °F - 39.2 °F 51% 29.71 in 6.2 mi NNW 9.2 mph - N/A   Unknown
3:00 AM 56 °F - 36 °F 36% 29.69 in - NNW 13.8 mph - -  
3:00 AM 55.4 °F - 37.4 °F 51% 29.68 in 6.2 mi NNW 13.8 mph - N/A   Unknown
3:30 AM 59.0 °F - 35.6 °F 42% 29.68 in 6.2 mi North 11.5 mph - N/A   Unknown
4:00 AM 61 °F - 35 °F 25% 29.67 in - North 17.3 mph - -  
4:00 AM 60.8 °F - 33.8 °F 36% 29.65 in 6.2 mi North 17.3 mph - N/A   Unknown
4:30 AM 62.6 °F - 33.8 °F 34% 29.62 in - North 17.3 mph - N/A   Clear
5:00 AM 60.8 °F - 33.8 °F 36% 29.62 in - North 18.4 mph - N/A   Clear
5:30 AM 62.6 °F - 33.8 °F 34% 29.62 in - NNW 16.1 mph - N/A   Clear
6:00 AM 60 °F - 34 °F 26% 29.61 in - NNW 19.6 mph - -  
6:00 AM 60.8 °F - 33.8 °F 36% 29.62 in - NNW 19.6 mph - N/A   Clear
6:30 AM 62.6 °F - 33.8 °F 34% 29.59 in - NNW 15.0 mph - N/A   Clear
7:00 AM 62 °F - 36 °F 26% 29.60 in - NW 18.4 mph - -  
7:00 AM 62.6 °F - 35.6 °F 37% 29.59 in - NW 18.4 mph - N/A   Clear
7:14 AM 66.2 °F - 33.8 °F 30% 29.62 in - NW 19.6 mph 32.2 mph N/A   Clear
7:16 AM 66.2 °F - 35.6 °F 32% 29.62 in - West 24.2 mph - N/A   Clear
7:19 AM 66.2 °F - 35.6 °F 32% 29.59 in - NW 25.3 mph - N/A   Clear
7:30 AM 68.0 °F - 33.8 °F 28% 29.59 in - NW 27.6 mph - N/A   Clear
7:33 AM 66.2 °F - 33.8 °F 30% 29.59 in - NW 24.2 mph 38.0 mph N/A   Unknown
8:00 AM 69.8 °F - 35.6 °F 28% 29.59 in - NW 23.0 mph - N/A   Clear
8:26 AM 69.8 °F - 35.6 °F 28% 29.59 in - NW 25.3 mph 36.8 mph N/A   Clear
8:30 AM 69.8 °F - 35.6 °F 28% 29.59 in - NW 24.2 mph - N/A   Clear
8:55 AM 68.0 °F - 33.8 °F 28% 29.62 in - NW 25.3 mph 40.3 mph N/A   Clear
9:00 AM 68 °F - 33 °F 17% 29.60 in - NW 25.3 mph - -  
9:00 AM 68.0 °F - 33.8 °F 28% 29.62 in - NW 25.3 mph 40.3 mph N/A   Clear
9:30 AM 71.6 °F - 35.6 °F 27% 29.62 in - NW 24.2 mph - N/A   Clear
10:00 AM 69 °F - 45 °F 30% 29.61 in - West 24.2 mph - -  
10:00 AM 68.0 °F - 44.6 °F 43% 29.62 in - West 24.2 mph - N/A   Clear
10:16 AM 68.0 °F - 46.4 °F 46% 29.65 in - West 21.9 mph 34.5 mph N/A   Clear
10:35 AM 69.8 °F - 50.0 °F 49% 29.65 in 6.2 mi WNW 25.3 mph 36.8 mph N/A   Mostly Cloudy
11:02 AM 66.2 °F - 50.0 °F 56% 29.65 in 6.2 mi WNW 21.9 mph 35.7 mph N/A   Mostly Cloudy
11:30 AM 62.6 °F - 51.8 °F 68% 29.71 in 6.2 mi WNW 28.8 mph 46.0 mph N/A Rain Light Rain
12:00 PM 59 °F - 52 °F 71% 29.70 in - NW 26.5 mph - -   Overcast
12:00 PM 59.0 °F - 51.8 °F 77% 29.71 in 5.6 mi NW 26.5 mph 38.0 mph N/A Rain Light Rain
12:30 PM 59.0 °F - 53.6 °F 82% 29.68 in 6.2 mi NW 26.5 mph 39.1 mph N/A Rain Light Rain
1:00 PM 60 °F - 54 °F 74% 29.65 in - NNW 27.6 mph - -  
1:00 PM 60.8 °F - 53.6 °F 77% 29.65 in 6.2 mi NNW 27.6 mph 39.1 mph N/A   Mostly Cloudy
1:30 PM 59.0 °F - 53.6 °F 82% 29.65 in 6.2 mi NNW 26.5 mph 39.1 mph N/A   Mostly Cloudy
1:45 PM 57.2 °F - 53.6 °F 88% 29.68 in 6.2 mi WNW 23.0 mph - N/A Rain Light Rain
1:50 PM 57.2 °F - 51.8 °F 82% 29.68 in 6.2 mi NW 24.2 mph 36.8 mph N/A Rain Light Rain
2:00 PM 57.2 °F - 48.2 °F 72% 29.68 in 6.2 mi WNW 25.3 mph - N/A Rain Light Rain Showers
2:10 PM 55.4 °F - 48.2 °F 77% 29.71 in 6.2 mi WNW 24.2 mph 35.7 mph N/A Rain Light Rain Showers
2:33 PM 53.6 °F - 42.8 °F 67% 29.71 in 6.2 mi WNW 23.0 mph 34.5 mph N/A Rain Light Rain Showers
3:00 PM 54 °F - 43 °F 55% 29.73 in - West 20.7 mph - -   Overcast
3:00 PM 53.6 °F - 42.8 °F 67% 29.74 in 6.2 mi West 20.7 mph - N/A Rain Light Rain Showers
3:19 PM 55.4 °F - 42.8 °F 63% 29.74 in 6.2 mi WNW 17.3 mph 28.8 mph N/A Rain Light Rain Showers
3:30 PM 53.6 °F - 42.8 °F 67% 29.77 in 6.2 mi WNW 18.4 mph - N/A Rain Light Rain Showers
4:00 PM 53 °F - 42 °F 57% 29.76 in - WNW 17.3 mph - -  
4:00 PM 53.6 °F - 42.8 °F 67% 29.77 in 6.2 mi WNW 17.3 mph - N/A   Scattered Clouds
4:30 PM 53.6 °F - 42.8 °F 67% 29.80 in 6.2 mi WNW 17.3 mph - N/A   Scattered Clouds
5:00 PM 53.6 °F - 41.0 °F 62% 29.80 in 6.2 mi WNW 17.3 mph - N/A   Partly Cloudy
5:30 PM 53.6 °F - 41.0 °F 62% 29.83 in 6.2 mi WNW 17.3 mph - N/A   Partly Cloudy
6:00 PM 52 °F - 39 °F 50% 29.82 in - WNW 17.3 mph - -  
6:00 PM 51.8 °F - 39.2 °F 62% 29.83 in 6.2 mi WNW 17.3 mph - N/A   Partly Cloudy
6:30 PM 50.0 °F - 39.2 °F 66% 29.83 in 6.2 mi WNW 18.4 mph 29.9 mph N/A   Partly Cloudy
7:00 PM 52 °F - 38 °F 47% 29.86 in - WNW 17.3 mph - -  
7:00 PM 51.8 °F - 37.4 °F 58% 29.86 in 6.2 mi WNW 17.3 mph - N/A   Partly Cloudy
7:30 PM 51.8 °F - 37.4 °F 58% 29.89 in 6.2 mi WNW 13.8 mph - N/A   Partly Cloudy
8:00 PM 50.0 °F - 37.4 °F 62% 29.92 in 6.2 mi WNW 12.7 mph - N/A   Partly Cloudy
8:30 PM 50.0 °F - 35.6 °F 58% 29.92 in 6.2 mi WNW 11.5 mph - N/A   Partly Cloudy
9:00 PM 49 °F - 36 °F 51% 29.94 in - WNW 10.4 mph - -  
9:00 PM 50.0 °F - 37.4 °F 62% 29.95 in 6.2 mi WNW 10.4 mph - N/A   Unknown
9:30 PM 48.2 °F - 35.6 °F 62% 29.95 in 6.2 mi WNW 10.4 mph - N/A   Unknown
10:00 PM 47 °F - 36 °F 54% 29.95 in - NW 10.4 mph - -  
10:00 PM 48.2 °F - 35.6 °F 62% 29.95 in 6.2 mi NW 10.4 mph - N/A   Unknown
10:30 PM 48.2 °F - 35.6 °F 62% 29.95 in 6.2 mi WNW 12.7 mph - N/A   Unknown
11:00 PM 48.2 °F - 33.8 °F 58% 29.98 in 6.2 mi WNW 8.1 mph - N/A   Unknown
11:30 PM 44.6 °F 40.7 °F 33.8 °F 66% 29.95 in 6.2 mi NNW 6.9 mph - N/A   Unknown